Weather Roundup
Issued by NWS Springfield, MO

Home | Current Version | Previous Version | Text Only | Print | Product List | Glossary On
Versions: 1 2 3 4 5 6 7 8 9 10 11 12 13 14 15 16 17 18 19 20 21 22 23 24 25 26 27 28 29 30 31 32 33 34 35 36 37 38 39 40 41 42 43 44 45 46 47 48 49 50
000
NZUS99 KSGF 011407
HRRSGF

HOURLY WEATHER
NATIONAL WEATHER SERVICE SPRINGFIELD MO
900 AM CDT FRI AUG 01 2014

......SGF CWA......

CITY           SKY/WX    TMP DP  RH WIND       PRES   REMARKS
SPRINGFIELD    CLOUDY    64  64 100 CALM      30.12R FOG
JOPLIN         CLOUDY    67  66  97 SW3       30.12R FOG
WEST PLAINS    CLOUDY    65  63  93 CALM      30.14R
ROLLA          SUNNY     71  64  78 SW5       30.09S
OSAGE BEACH    SUNNY     70  63  78 S5        30.10S
BRANSON        FOG       66  66 100 CALM      30.13R VSB 1

......SURROUNDING SGF CWA......

CITY           SKY/WX    TMP DP  RH WIND       PRES   REMARKS
CHANUTE        CLOUDY    68  67  96 S5        30.10S
PARSONS        FOG       68  67  96 CALM      30.11R VSB 1/4
COFFEYVILLE    FOG       67  67 100 S3        30.10R VSB 1/2
EMPORIA        MOSUNNY   68  65  90 S3        30.08S
GROVE OK       CLOUDY    70  70 100 CALM      30.12S
ROGERS AR      PTSUNNY   67  64  90 N5        30.14R
SILOAM SPRINGS CLOUDY    68  61  77 CALM      30.13S
HARRISON AR    CLOUDY    65  65 100 CALM      30.13R
NEAR YELLVILLE CLOUDY    66  64  94 E3        30.11S

......KANSAS AND MISSOURI......

CITY           SKY/WX    TMP DP  RH WIND       PRES   REMARKS
KANSAS CTY INT LGT RAIN  70  62  76 E5        30.09R
DOWNTOWN KC    CLOUDY    71  62  73 E6        30.08R
COLUMBIA       MOSUNNY   71  62  73 W5        30.09R
SEDALIA        MOSUNNY   73  65  75 W3        30.10R
ST JOSEPH      CLOUDY    71  64  78 CALM      30.08R
ST LOUIS       MOSUNNY   77  66  68 CALM      30.10R
SPIRIT OF STL  MOSUNNY   73  65  75 CALM      30.08S
KIRKSVILLE     PTSUNNY   72  60  66 W6        30.11R
WICHITA        MOSUNNY   72  62  71 SW7       30.07S
TOPEKA         PTSUNNY   71  64  78 E5        30.08R
OLATHE         CLOUDY    70  62  76 E3        30.09R

......TENNESSEE......

CITY           SKY/WX    TMP DP  RH WIND       PRES   REMARKS
MEMPHIS        CLOUDY    75  65  70 E6        30.08S
NASHVILLE      MOSUNNY   77  65  66 CALM      30.10R

......ARKANSAS.......

CITY           SKY/WX    TMP DP  RH WIND       PRES   REMARKS
FAYETTEVILLE   CLOUDY    68  65  90 CALM      30.12R
FT SMITH       CLOUDY    71  67  87 NE7       30.09R
LITTLE ROCK    CLOUDY    71  64  78 NE6       30.08R

......OKLAHOMA.......

CITY           SKY/WX    TMP DP  RH WIND       PRES   REMARKS
TULSA          PTSUNNY   72  66  81 CALM      30.09R
PONCA CITY     SUNNY     71  67  87 MISG      30.09R
MCALESTER      CLOUDY    69  66  90 CALM      30.10R
OKLAHOMA CITY  PTSUNNY   73  66  78 NE5       30.11R

......IOWA............

CITY           SKY/WX    TMP DP  RH WIND       PRES   REMARKS
DES MOINES     MOSUNNY   73  62  68 CALM      30.09R
QUAD CITIES    MOSUNNY   70  63  78 SW7       30.09S

......ILLINOIS........

CITY           SKY/WX    TMP DP  RH WIND       PRES   REMARKS
QUINCY         PTSUNNY   70  59  68 CALM      30.09R
CHICAGO        MOSUNNY   74  56  53 W7        30.08F



USA.gov is the U.S. government's official web portal to all federal, state and local government web resources and services.